Wind_Speed
2 2 9 13 10 8 4 5 9 14 8 5 9 9 11 9 6 10 7 9 10 12 6 15 23 29 31 34 36 38 40 39 39 37 33 26 23 18 16 14 14 14 13 12
1 9 12 5 8 8 7 9 14 11 9 5 9 15 12 8 8 8 9 8 11 7 11 13 24 30 35 37 38 40 41 40 39 36 31 31 28 19 17 14 14 13 12 11
7 8 2 7 5 5 6 6 7 11 4 5 6 20 8 6 5 7 8 9 8 16 18 16 20 30 30 34 37 39 41 40 36 34 30 27 21 22 18 16 15 14 12 12
6 8 5 3 5 5 3 8 8 7 3 12 6 12 24 7 14 8 9 8 10 13 16 18 20 25 34 34 34 37 40 40 37 35 35 36 22 20 21 21 17 15 13 13
7 3 8 7 7 5 14 5 7 8 7 3 11 3 17 5 5 8 11 9 11 16 21 22 23 33 35 33 34 35 40 40 40 38 37 35 29 24 25 22 20 17 15 13
8 2 5 6 8 7 5 5 5 6 3 8 29 10 17 16 6 4 8 12 9 13 19 19 21 23 25 27 30 29 30 31 36 37 36 33 30 28 29 26 23 20 17 15
6 5 4 8 14 5 5 2 5 3 3 12 12 9 19 16 6 10 13 12 9 12 15 14 16 16 22 28 26 25 28 28 36 36 34 33 31 31 32 30 27 25 21 18
3 22 3 3 3 5 5 6 6 7 9 15 8 7 8 8 11 8 8 7 6 8 14 17 18 18 28 26 26 31 31 31 37 36 35 35 31 32 30 29 27 25 23 20
4 16 7 6 7 2 6 8 10 18 19 14 17 15 11 9 8 11 9 3 1 4 6 9 11 19 28 28 29 33 32 32 33 33 35 35 33 33 33 29 25 23 20 20
3 9 12 16 7 9 12 4 11 4 12 22 8 9 6 4 4 7 9 9 5 3 7 10 13 18 22 29 32 30 33 39 36 35 36 34 34 33 32 29 28 24 23 22
11 6 12 13 5 5 7 9 5 5 4 11 16 12 4 2 2 2 4 9 7 4 3 7 9 15 15 21 27 33 32 34 34 34 33 32 33 32 31 31 29 26 23 22
15 9 16 28 31 25 22 24 21 13 16 14 11 10 5 6 6 3 5 8 10 11 4 3 6 11 15 16 19 29 31 36 36 35 34 33 32 31 32 31 29 26 24 22
7 4 10 10 9 9 9 7 10 12 6 16 12 7 2 5 6 4 3 4 4 5 10 7 5 9 16 20 19 24 29 30 34 35 33 33 34 33 31 31 28 25 24 24
10 6 13 15 14 17 27 28 25 17 7 5 9 10 8 14 12 8 8 11 11 11 12 6 10 10 15 22 24 24 29 33 35 35 36 35 34 34 33 31 28 27 25 23
4 8 13 16 21 24 27 29 28 23 20 15 13 9 20 16 17 15 13 11 11 11 10 9 9 8 8 16 21 23 24 31 34 34 33 35 36 35 33 32 30 27 25 22
5 12 13 17 24 24 28 29 26 21 23 24 23 23 18 19 14 14 12 10 11 12 9 13 16 10 13 22 24 25 28 30 32 32 31 35 35 35 35 32 31 30 27 24
14 7 7 15 20 21 17 21 17 17 19 11 13 21 15 11 9 10 14 13 12 9 7 7 14 18 16 24 31 33 33 33 34 33 34 37 38 37 36 34 32 28 27 26
18 18 9 13 13 17 7 3 8 13 14 9 16 15 11 9 1 6 5 2 3 5 8 6 7 5 14 24 27 28 33 35 33 31 32 33 35 33 32 33 30 30 28 25
16 12 7 6 11 13 13 14 7 6 8 3 6 6 3 7 4 3 2 4 5 5 6 4 5 2 14 23 27 31 31 31 31 32 34 35 37 36 35 32 31 30 30 26
6 12 8 9 4 6 3 5 7 4 4 3 6 3 8 3 2 4 5 3 7 7 6 4 7 8 18 23 31 30 31 32 32 33 34 35 35 35 34 33 34 31 26 26
9 6 8 10 5 4 7 10 8 2 4 1 3 4 7 5 4 3 6 6 5 7 9 7 6 1 12 23 28 26 27 28 27 28 30 30 29 30 29 30 29 29 27 28
4 5 4 4 4 5 17 15 3 3 6 6 3 3 4 4 3 4 6 7 6 7 7 5 1 5 16 20 23 21 21 24 29 31 29 30 29 27 29 30 28 27 26 26
2 2 4 3 6 16 17 13 11 10 6 5 5 6 5 5 6 5 6 6 5 5 5 4 8 9 14 20 23 23 24 31 30 30 29 30 29 27 30 30 29 28 27 25
5 8 4 8 6 11 19 13 11 8 7 7 8 8 4 7 7 7 7 6 6 3 2 8 11 10 13 16 19 22 29 31 30 28 28 29 29 28 28 28 30 27 26 24
10 10 7 6 13 10 13 14 13 18 15 13 9 6 8 7 8 9 8 7 6 5 5 16 13 11 15 22 23 26 30 31 28 28 28 27 26 29 26 26 29 29 30 32
5 4 4 7 14 13 17 19 20 11 7 7 7 7 8 7 9 8 7 7 5 6 10 12 14 15 16 23 25 27 30 32 29 26 25 25 25 25 24 24 22 25 28 29
Wind_Direction
266 264 230 220 208 230 240 263 266 266 260 244 246 267 264 274 257 275 234 208 214 219 206 177 169 172 176 179 178 176 171 170 169 167 160 157 154 153 152 156 156 155 153 151
87 238 243 249 243 235 245 259 270 289 264 238 290 280 257 249 240 222 246 235 212 163 163 171 171 171 178 176 176 173 173 172 173 173 172 168 163 156 156 154 154 157 156 156
176 233 320 201 251 230 225 214 256 253 284 278 293 287 241 246 244 230 239 241 202 183 178 177 180 180 176 177 176 174 173 175 178 175 171 161 154 147 145 153 153 155 163 163
221 267 249 235 220 234 249 229 259 284 298 283 149 286 280 244 245 238 251 235 228 191 189 181 181 181 182 182 174 176 176 176 181 180 173 167 159 152 163 162 158 154 158 160
245 255 285 275 250 181 276 236 255 264 252 335 255 209 274 52 254 261 276 227 224 197 189 188 188 186 183 172 172 177 180 179 182 181 180 174 166 169 161 159 157 156 154 156
234 239 214 235 256 205 269 321 294 260 209 254 264 205 271 273 227 245 264 275 210 205 203 195 185 172 167 163 170 177 180 178 183 183 179 181 173 166 160 161 159 160 159 156
325 258 237 241 279 252 201 58 287 295 207 244 274 206 241 285 246 244 254 258 249 216 189 178 167 167 160 161 168 173 176 181 185 183 182 188 180 177 173 168 166 164 162 161
257 300 270 31 167 274 203 209 225 262 263 272 282 247 244 254 298 300 264 278 233 179 177 175 167 162 156 163 171 176 177 185 187 186 190 192 185 186 179 176 174 172 168 163
318 265 327 347 325 318 327 236 247 254 260 262 255 265 288 303 2 359 338 3 325 111 128 147 155 162 163 163 177 179 175 187 191 193 193 190 189 192 182 175 177 171 168 164
14 312 303 312 293 265 243 280 283 275 265 262 247 243 233 350 17 20 25 3 354 90 145 158 168 174 184 169 172 176 178 182 188 187 186 187 192 195 184 175 172 173 170 168
305 224 291 326 267 357 325 299 301 296 248 269 272 263 224 99 166 141 36 43 10 354 190 187 182 170 180 195 173 170 175 179 185 185 185 186 190 189 183 175 173 172 172 170
285 277 270 261 270 271 269 268 265 255 264 258 273 271 255 147 145 114 80 71 38 355 334 165 167 161 165 176 171 168 177 184 186 184 182 179 185 186 179 173 173 174 174 172
320 238 281 275 267 258 251 282 277 293 282 257 254 254 153 159 165 166 187 197 163 217 302 311 240 187 177 174 179 178 182 185 187 184 179 179 181 180 175 172 172 174 176 174
301 254 261 276 283 296 288 283 286 278 264 268 242 265 278 278 265 193 198 200 198 205 216 216 271 206 197 179 180 193 181 191 185 184 179 175 179 174 170 171 173 172 176 175
264 264 276 274 277 273 266 266 266 262 260 264 281 266 253 261 265 261 225 205 205 222 219 220 227 218 201 193 185 186 183 185 183 179 177 177 175 171 169 172 171 173 177 180
288 280 288 282 275 273 268 267 255 250 265 272 258 255 262 268 258 245 214 220 229 226 224 222 228 194 186 190 187 185 179 177 179 173 173 173 173 171 171 174 174 173 175 176
281 265 264 273 279 290 271 246 231 244 244 247 244 250 274 267 252 240 229 221 234 257 252 249 254 229 198 196 192 187 178 171 172 170 171 173 173 170 171 173 174 174 175 175
251 261 265 271 289 275 251 303 240 234 260 248 250 258 262 259 1 77 56 105 138 249 280 281 323 304 215 201 187 175 168 170 170 166 165 169 166 164 167 172 181 184 183 180
223 240 261 251 251 286 298 278 252 202 261 196 239 253 164 114 76 357 146 211 202 227 260 283 313 319 188 172 168 162 162 168 165 167 169 170 169 168 172 174 178 179 176 175
354 217 248 283 275 247 261 344 342 348 274 267 240 244 136 148 109 239 216 223 234 239 236 250 309 296 181 167 162 161 160 168 174 173 171 171 173 170 171 173 179 184 184 175
311 308 256 269 264 289 329 331 322 254 294 23 12 116 156 177 201 178 154 226 250 266 280 298 355 306 177 159 159 162 168 174 170 163 166 168 166 166 169 170 176 176 168 167
284 314 340 323 277 290 353 316 338 294 302 295 236 214 226 227 202 183 192 222 225 258 280 281 111 119 149 156 160 157 166 160 157 161 159 158 163 166 173 172 171 172 159 160
299 106 283 262 273 308 312 291 275 259 266 273 277 263 245 238 214 222 235 234 219 235 262 220 164 133 144 158 161 152 160 157 157 154 156 160 163 164 167 162 157 154 163 164
279 320 271 321 249 307 308 295 293 281 282 280 253 261 233 244 240 228 246 241 231 217 237 177 160 149 147 161 162 160 157 156 152 152 152 155 156 158 161 161 164 163 167 167
272 298 267 258 273 290 302 318 290 283 298 294 262 233 232 227 234 222 236 230 226 208 212 179 176 166 160 157 157 156 156 153 151 152 154 155 157 158 160 168 170 172 182 186
210 241 284 281 294 297 291 299 303 303 292 291 282 265 243 205 232 234 238 230 203 205 200 178 172 161 161 153 153 156 158 157 151 150 152 155 154 156 161 163 164 188 198 199
Height
758 771 773 761 760 753 760 765 766 748 740 742 740 736 729 719 715 713 713 713 714 716 719 724 727 730 737 741 745 747 749 754 757 763 770 775 779 786 789 790 792 793 796 797
764 770 751 753 755 757 760 766 760 744 736 739 735 723 720 716 710 707 705 708 708 712 715 720 722 725 730 733 738 742 747 752 754 759 765 769 774 782 787 791 792 794 796 798
763 747 741 749 750 753 755 760 754 749 738 737 735 716 716 707 704 698 697 694 697 702 707 714 718 720 726 729 733 739 742 749 755 755 762 770 776 780 784 788 791 793 796 798
756 741 741 743 748 743 754 742 741 744 748 750 734 740 700 706 700 698 694 696 693 694 697 702 710 713 716 723 732 737 740 745 750 754 757 763 768 774 779 785 790 793 795 799
750 742 746 748 741 736 735 734 743 743 749 746 730 748 697 697 698 697 689 688 688 686 687 691 696 701 708 718 726 734 738 742 746 749 754 759 765 771 776 783 787 792 795 798
747 735 738 737 731 733 728 735 739 741 747 756 708 736 711 691 695 690 685 678 680 679 683 685 693 706 713 720 727 735 741 744 748 750 752 759 763 769 774 780 785 790 794 797
749 740 732 727 733 729 731 744 762 760 758 734 708 727 699 682 686 686 682 678 677 674 681 690 695 703 711 716 725 733 738 742 747 748 751 758 762 768 771 776 781 786 791 796
764 744 730 727 732 735 735 740 759 746 735 721 712 724 703 683 680 678 678 678 677 675 677 684 691 696 704 716 722 727 730 741 743 745 750 757 762 767 770 775 780 785 789 793
765 745 731 737 734 733 731 734 722 729 721 726 709 697 689 684 686 691 687 683 685 685 688 694 701 704 702 706 718 722 725 738 741 745 748 754 761 768 767 771 780 785 789 793
766 774 741 733 736 734 734 726 733 733 731 719 705 698 703 692 693 696 699 705 694 696 695 697 699 703 708 705 709 719 726 730 739 743 745 751 760 767 768 771 776 785 790 792
769 768 759 750 736 738 740 738 735 729 728 718 710 699 693 693 694 694 697 699 707 703 700 700 701 703 704 711 708 713 724 729 738 740 744 748 759 767 769 769 777 783 789 792
769 767 766 751 731 730 734 729 729 733 720 708 706 703 694 698 697 696 697 700 703 708 705 703 702 702 706 711 712 713 722 727 734 738 740 747 759 766 769 769 776 783 788 792
765 765 762 748 738 728 727 719 719 717 717 713 721 705 693 694 696 694 698 697 698 704 703 704 703 699 698 706 713 716 720 726 733 737 739 747 758 764 765 770 777 783 790 794
774 768 764 753 751 750 741 730 724 723 731 719 709 697 695 688 689 692 693 689 691 694 691 692 695 698 698 700 707 713 712 723 730 736 740 745 756 758 763 771 779 783 791 795
772 767 759 752 743 737 731 726 718 719 711 715 708 710 691 688 683 681 680 684 684 686 683 685 684 690 694 700 704 711 717 722 726 734 739 747 753 756 763 773 776 783 791 795
771 766 762 764 742 731 724 711 707 707 699 698 691 685 676 674 675 672 674 674 674 675 676 679 680 684 689 695 698 705 709 717 726 732 741 746 752 757 763 773 776 780 788 793
771 766 758 748 733 726 716 698 696 689 683 684 689 672 669 672 668 667 665 667 668 670 673 677 673 667 671 683 688 695 702 711 721 729 737 743 748 755 762 769 777 781 783 788
758 758 756 742 732 733 689 678 681 680 672 674 671 668 666 666 672 673 672 672 672 674 673 672 668 660 663 673 682 691 699 708 717 725 733 742 747 755 762 768 775 780 783 787
743 752 742 732 714 696 686 674 675 679 672 672 668 666 667 672 673 675 670 671 671 673 673 670 668 667 669 672 679 687 695 706 712 720 728 737 742 750 757 765 772 778 781 785
735 741 740 728 703 704 678 671 670 673 680 667 668 667 671 673 690 683 672 673 674 673 671 670 668 666 666 670 675 682 688 700 708 714 723 732 742 745 754 761 767 774 779 782
741 737 734 720 709 694 680 678 672 687 682 669 668 668 671 672 673 667 670 673 672 669 666 665 665 665 666 669 674 682 691 695 705 715 725 733 738 745 753 759 766 771 777 783
747 745 733 732 719 713 698 690 687 688 679 677 671 669 671 667 668 668 670 671 671 669 666 666 665 667 668 673 678 684 691 697 705 715 724 730 737 746 752 757 765 771 777 783
754 746 746 747 724 700 708 696 686 680 678 675 676 669 670 668 667 668 668 669 670 668 667 667 668 670 671 675 678 683 692 698 706 713 722 728 737 744 750 756 763 769 775 782
742 736 741 738 709 711 700 691 680 672 672 670 671 670 668 669 666 668 668 668 669 667 667 667 671 672 673 677 680 684 690 697 704 712 721 728 735 742 748 755 760 766 772 779
748 742 733 726 715 709 692 689 682 676 671 669 664 663 663 665 664 664 664 664 665 665 666 667 671 672 674 677 682 687 691 697 705 712 719 726 733 739 747 753 758 763 770 774
733 734 728 718 710 711 699 688 682 678 671 665 664 661 658 659 659 657 659 659 661 662 664 665 667 670 675 678 683 688 693 698 703 711 718 725 731 739 746 752 759 765 769 774